When you browse on this site, cookies collect data to enhance your experience and personalize the content and advertising you see.
Visit our Privacy Policy to learn more. By continuing to use the site, you agree to this use of cookies and data.

Meteo pe oră la Dziechno

Astăzi, 19 Septembrie, Sâmbătă

Timp Temperatura Precipitaţii Vânt Presiune Umiditate
00:00 +8°C° 0 mm 3 m/s 754 mmHg 76%
01:00 +9°C° 0 mm 3 m/s 754 mmHg 77%
02:00 +8°C° 0 mm 3 m/s 754 mmHg 80%
03:00 +8°C° 0 mm 3 m/s 753 mmHg 82%
04:00 +8°C° 0 mm 3 m/s 753 mmHg 85%
05:00 +9°C° 0 mm 3 m/s 753 mmHg 82%
06:00 +9°C° 0 mm 3 m/s 753 mmHg 80%
07:00 +10°C° 0 mm 2 m/s 753 mmHg 78%
08:00 +12°C° 0 mm 3 m/s 754 mmHg 74%
09:00 +14°C° 0 mm 3 m/s 754 mmHg 69%
10:00 +16°C° 0 mm 3 m/s 754 mmHg 64%
11:00 +17°C° 0 mm 2 m/s 754 mmHg 62%
12:00 +18°C° 0 mm 2 m/s 753 mmHg 60%
13:00 +19°C° 0 mm 2 m/s 753 mmHg 57%
14:00 +18°C° 0 mm 2 m/s 753 mmHg 60%
15:00 +18°C° 0 mm 2 m/s 753 mmHg 63%
16:00 +18°C° 0 mm 2 m/s 752 mmHg 65%
17:00 +16°C° 0 mm 2 m/s 752 mmHg 74%
18:00 +14°C° 0 mm 2 m/s 752 mmHg 83%
19:00 +13°C° 0 mm 1 m/s 752 mmHg 92%
20:00 +12°C° 0 mm 1 m/s 752 mmHg 93%
21:00 +12°C° 0 mm 1 m/s 752 mmHg 94%
22:00 +12°C° 0 mm 1 m/s 752 mmHg 95%
23:00 +12°C° 0 mm 1 m/s 752 mmHg 95%

Mâine, 20 Septembrie, Duminică

Timp Temperatura Precipitaţii Vânt Presiune Umiditate
00:00 +11°C° 0 mm 1 m/s 752 mmHg 94%
01:00 +11°C° 0 mm 1 m/s 752 mmHg 94%
02:00 +11°C° 0 mm 1 m/s 752 mmHg 95%
03:00 +11°C° 0 mm 1 m/s 752 mmHg 95%
04:00 +11°C° 0 mm 1 m/s 752 mmHg 95%
05:00 +12°C° 0 mm 1 m/s 752 mmHg 93%
06:00 +12°C° 0 mm 1 m/s 752 mmHg 92%
07:00 +12°C° 0 mm 1 m/s 752 mmHg 90%
08:00 +14°C° 0 mm 2 m/s 752 mmHg 81%
09:00 +16°C° 0 mm 2 m/s 752 mmHg 72%
10:00 +18°C° 0 mm 2 m/s 752 mmHg 63%
11:00 +19°C° 0 mm 2 m/s 752 mmHg 58%
12:00 +20°C° 0 mm 2 m/s 752 mmHg 54%
13:00 +21°C° 0 mm 2 m/s 752 mmHg 49%
14:00 +21°C° 0 mm 2 m/s 751 mmHg 50%
15:00 +20°C° 0 mm 2 m/s 751 mmHg 51%
16:00 +20°C° 0 mm 2 m/s 751 mmHg 53%
17:00 +18°C° 0 mm 2 m/s 750 mmHg 59%
18:00 +17°C° 0 mm 2 m/s 750 mmHg 66%
19:00 +15°C° 0 mm 1 m/s 750 mmHg 72%
20:00 +14°C° 0 mm 2 m/s 750 mmHg 70%
21:00 +14°C° 0 mm 2 m/s 750 mmHg 68%
22:00 +13°C° 0 mm 2 m/s 750 mmHg 66%
23:00 +13°C° 0 mm 2 m/s 750 mmHg 65%

Poimâine, 21 Septembrie, Luni

Timp Temperatura Precipitaţii Vânt Presiune Umiditate
00:00 +12°C° 0 mm 2 m/s 750 mmHg 64%
01:00 +12°C° 0 mm 2 m/s 749 mmHg 63%
02:00 +12°C° 0 mm 2 m/s 749 mmHg 63%
03:00 +10°C° 0 mm 2 m/s 749 mmHg 62%
04:00 +11°C° 0 mm 1 m/s 749 mmHg 62%
05:00 +10°C° 0 mm 2 m/s 749 mmHg 61%
06:00 +12°C° 0 mm 2 m/s 749 mmHg 60%
07:00 +12°C° 0 mm 2 m/s 749 mmHg 59%
08:00 +14°C° 0 mm 2 m/s 749 mmHg 52%
09:00 +16°C° 0 mm 2 m/s 749 mmHg 45%
10:00 +18°C° 0 mm 2 m/s 749 mmHg 39%
11:00 +19°C° 0 mm 2 m/s 749 mmHg 36%
12:00 +21°C° 0 mm 2 m/s 749 mmHg 33%
13:00 +23°C° 0 mm 2 m/s 749 mmHg 31%
14:00 +22°C° 0 mm 1 m/s 748 mmHg 35%
15:00 +22°C° 0 mm 1 m/s 748 mmHg 39%
16:00 +22°C° 0 mm 1 m/s 747 mmHg 44%
17:00 +20°C° 0 mm 1 m/s 747 mmHg 50%
18:00 +16°C° 0 mm 1 m/s 747 mmHg 56%
19:00 +14°C° 0 mm 1 m/s 747 mmHg 62%
20:00 +14°C° 0 mm 1 m/s 747 mmHg 64%
21:00 +14°C° 0 mm 1 m/s 747 mmHg 65%
22:00 +13°C° 0 mm 1 m/s 746 mmHg 67%
23:00 +13°C° 0 mm 2 m/s 746 mmHg 69%

22 Septembrie, Marţi

Timp Temperatura Precipitaţii Vânt Presiune Umiditate
00:00 +13°C° 0 mm 2 m/s 746 mmHg 71%
01:00 +13°C° 0 mm 2 m/s 746 mmHg 73%
02:00 +13°C° 0 mm 2 m/s 745 mmHg 74%
03:00 +13°C° 0 mm 2 m/s 745 mmHg 75%
04:00 +12°C° 0 mm 2 m/s 745 mmHg 76%
05:00 +13°C° 0 mm 2 m/s 745 mmHg 75%
06:00 +14°C° 0 mm 2 m/s 745 mmHg 75%
07:00 +14°C° 0 mm 2 m/s 745 mmHg 74%
08:00 +17°C° 0 mm 2 m/s 745 mmHg 67%
09:00 +19°C° 0 mm 2 m/s 745 mmHg 59%
10:00 +21°C° 0 mm 2 m/s 745 mmHg 52%
11:00 +22°C° 0 mm 3 m/s 744 mmHg 48%
12:00 +24°C° 0 mm 3 m/s 744 mmHg 45%
13:00 +25°C° 0 mm 3 m/s 744 mmHg 41%
14:00 +25°C° 0 mm 3 m/s 743 mmHg 44%
15:00 +25°C° 0 mm 3 m/s 743 mmHg 46%
16:00 +24°C° 0 mm 2 m/s 742 mmHg 49%
17:00 +21°C° 0 mm 2 m/s 742 mmHg 54%
18:00 +19°C° 0 mm 2 m/s 741 mmHg 59%
19:00 +18°C° 0 mm 2 m/s 741 mmHg 65%
20:00 +17°C° 0 mm 2 m/s 741 mmHg 66%
21:00 +17°C° 0 mm 3 m/s 741 mmHg 67%
22:00 +16°C° 0 mm 3 m/s 740 mmHg 68%
23:00 +16°C° 0 mm 3 m/s 740 mmHg 69%

23 Septembrie, Miercuri

Timp Temperatura Precipitaţii Vânt Presiune Umiditate
00:00 +16°C° 0 mm 3 m/s 740 mmHg 70%
01:00 +16°C° 0 mm 3 m/s 740 mmHg 71%
02:00 +16°C° 0 mm 3 m/s 739 mmHg 72%
03:00 +14°C° 0 mm 3 m/s 739 mmHg 73%
04:00 +14°C° 0 mm 3 m/s 739 mmHg 74%
05:00 +16°C° 0 mm 3 m/s 739 mmHg 74%
06:00 +16°C° 0 mm 3 m/s 739 mmHg 74%
07:00 +16°C° 0 mm 3 m/s 739 mmHg 75%
08:00 +18°C° 0 mm 3 m/s 739 mmHg 68%
09:00 +20°C° 0 mm 3 m/s 739 mmHg 62%
10:00 +22°C° 0 mm 3 m/s 739 mmHg 55%
11:00 +24°C° 0 mm 2 m/s 739 mmHg 52%
12:00 +25°C° 0 mm 2 m/s 738 mmHg 49%
13:00 +26°C° 0 mm 2 m/s 738 mmHg 46%
14:00 +25°C° 0 mm 2 m/s 738 mmHg 49%
15:00 +25°C° 0 mm 2 m/s 738 mmHg 52%
16:00 +24°C° 0 mm 2 m/s 737 mmHg 55%
17:00 +23°C° 0 mm 2 m/s 737 mmHg 60%
18:00 +20°C° 0 mm 2 m/s 737 mmHg 66%
19:00 +19°C° 0 mm 2 m/s 737 mmHg 71%
20:00 +18°C° 0 mm 2 m/s 737 mmHg 73%
21:00 +18°C° 0 mm 2 m/s 737 mmHg 76%
22:00 +18°C° 0 mm 3 m/s 737 mmHg 78%
23:00 +17°C° 0 mm 3 m/s 737 mmHg 79%

24 Septembrie, Joi

Timp Temperatura Precipitaţii Vânt Presiune Umiditate
00:00 +17°C° 0 mm 3 m/s 737 mmHg 80%
01:00 +17°C° 0 mm 3 m/s 736 mmHg 81%
02:00 +16°C° 0 mm 3 m/s 736 mmHg 80%
03:00 +16°C° 0 mm 3 m/s 736 mmHg 80%
04:00 +16°C° 0 mm 3 m/s 736 mmHg 80%
05:00 +16°C° 0 mm 3 m/s 737 mmHg 77%
06:00 +16°C° 0 mm 3 m/s 737 mmHg 74%
07:00 +17°C° 0 mm 3 m/s 737 mmHg 71%
08:00 +18°C° 0 mm 3 m/s 737 mmHg 68%
09:00 +19°C° 0 mm 3 m/s 738 mmHg 66%
10:00 +21°C° 0 mm 3 m/s 738 mmHg 63%
11:00 +21°C° 0 mm 3 m/s 738 mmHg 63%
12:00 +21°C° 0 mm 2 m/s 739 mmHg 62%
13:00 +23°C° 0 mm 2 m/s 739 mmHg 62%
14:00 +21°C° 0 mm 2 m/s 739 mmHg 64%
15:00 +22°C° 0 mm 1 m/s 738 mmHg 66%
16:00 +21°C° 0 mm 1 m/s 738 mmHg 68%
17:00 +19°C° 0 mm 2 m/s 738 mmHg 75%
18:00 +18°C° 0 mm 2 m/s 738 mmHg 81%
19:00 +16°C° 0 mm 3 m/s 738 mmHg 88%
20:00 +16°C° 0 mm 3 m/s 738 mmHg 88%
21:00 +16°C° 0 mm 3 m/s 738 mmHg 87%
22:00 +16°C° 0 mm 3 m/s 737 mmHg 87%
23:00 +16°C° 0 mm 3 m/s 737 mmHg 85%
Arată mai mult